Richmond, KY

10:15 AM EST on December 15, 2017 (GMT -0500)
Richmond

Weather History for KI39 - November, 2012

Change the Weather History Date:

Monday, November 12, 2012

  Actual Average (KLOZ) Record (KLOZ)
Temperature  
Mean Temperature 47 °F -  
Max Temperature 62 °F 56 °F 76 °F (1978)
Min Temperature 32 °F 34 °F 20 °F (1976)
Degree Days  
Heating Degree Days 18    
Moisture  
Dew Point 43 °F    
Average Humidity 80    
Maximum Humidity 94    
Minimum Humidity 55    
Precipitation  
Precipitation 0.00 in - - ()
Sea Level Pressure  
Sea Level Pressure 30.21 in    
Wind  
Wind Speed 8 mph (SW)    
Max Wind Speed 21 mph    
Max Gust Speed 31 mph    
Visibility 9 miles    
Events      
Averages and records for this station are not official NWS values.
T = Trace of Precipitation, MM = Missing Value Source: NWS Daily Summary

Daily Weather History Graph

Daily Weather History Graph

Search for Another Location

Airport or City:

Trip Planner

Search our weather history database for the weather conditions in past years. The results will help you decide how hot, cold, wet, or windy it might be!

Date:

Astronomy

Nov. 12, 2012 Rise Set
Actual Time 7:14 AM EST 5:28 PM EST
Civil Twilight 6:46 AM EST 5:55 PM EST
Nautical Twilight 6:15 AM EST 6:27 PM EST
Astronomical Twilight 5:44 AM EST 6:58 PM EST
Moon 5:39 AM EST (11/12) 4:32 PM EST (11/12)
Length of Visible Light 11h 09m
Length of Day
10h 13m
Waning Crescent, 2% of the Moon is Illuminated
Nov 12
Waning Crescent
Nov 13
New
Nov 20
First Quarter
Nov 28
Full
Dec 6
Last Quarter

Hourly Weather History & Observations

Time (EST) Temp. Windchill Dew Point Humidity Pressure Visibility Wind Dir Wind Speed Gust Speed Precip Events Conditions
12:15 AM 62.6 °F - 46.4 °F 55% 30.13 in 10.0 mi South 11.5 mph 18.4 mph N/A   Clear
12:35 AM 62.6 °F - 46.4 °F 55% 30.13 in 10.0 mi South 9.2 mph - N/A   Clear
12:55 AM 60.8 °F - 46.4 °F 59% 30.13 in 10.0 mi South 6.9 mph - N/A   Clear
1:15 AM 60.8 °F - 46.4 °F 59% 30.13 in 10.0 mi South 4.6 mph - N/A   Clear
1:35 AM 60.8 °F - 46.4 °F 59% 30.14 in 10.0 mi SSW 5.8 mph - N/A   Clear
1:55 AM 60.8 °F - 46.4 °F 59% 30.14 in 10.0 mi South 6.9 mph - N/A   Clear
2:15 AM 60.8 °F - 46.4 °F 59% 30.15 in 10.0 mi SSW 4.6 mph - N/A   Scattered Clouds
2:35 AM 60.8 °F - 46.4 °F 59% 30.14 in 10.0 mi Calm Calm - N/A   Mostly Cloudy
2:55 AM 60.8 °F - 46.4 °F 59% 30.14 in 10.0 mi South 3.5 mph - N/A   Overcast
3:15 AM 60.8 °F - 46.4 °F 59% 30.14 in 10.0 mi South 3.5 mph - N/A   Overcast
3:35 AM 60.8 °F - 46.4 °F 59% 30.13 in 10.0 mi South 3.5 mph - N/A   Overcast
3:55 AM 60.8 °F - 46.4 °F 59% 30.13 in 10.0 mi South 3.5 mph - N/A   Overcast
4:15 AM 60.8 °F - 46.4 °F 59% 30.12 in 10.0 mi South 3.5 mph - N/A   Overcast
4:35 AM 60.8 °F - 48.2 °F 63% 30.12 in 10.0 mi South 4.6 mph - N/A   Overcast
5:15 AM 62.6 °F - 48.2 °F 59% 30.10 in 10.0 mi SSE 6.9 mph - N/A   Mostly Cloudy
5:35 AM 60.8 °F - 48.2 °F 63% 30.09 in 10.0 mi SSE 4.6 mph - N/A   Scattered Clouds
5:55 AM 62.6 °F - 50.0 °F 63% 30.09 in 10.0 mi SSE 9.2 mph - N/A   Mostly Cloudy
6:15 AM 60.8 °F - 50.0 °F 68% 30.09 in 10.0 mi South 6.9 mph - N/A   Overcast
6:35 AM 60.8 °F - 51.8 °F 72% 30.10 in 10.0 mi South 9.2 mph 16.1 mph N/A   Overcast
6:55 AM 60.8 °F - 51.8 °F 72% 30.11 in 10.0 mi South 11.5 mph 17.3 mph N/A   Overcast
7:15 AM 59.0 °F - 51.8 °F 77% 30.11 in 10.0 mi South 12.7 mph 23.0 mph N/A   Overcast
7:55 AM 59.0 °F - 53.6 °F 82% 30.10 in 10.0 mi South 16.1 mph 23.0 mph N/A   Overcast
8:15 AM 59.0 °F - 53.6 °F 82% 30.09 in 10.0 mi South 15.0 mph 31.1 mph N/A   Overcast
8:35 AM 59.0 °F - 53.6 °F 82% 30.09 in 10.0 mi South 19.6 mph 31.1 mph N/A   Overcast
8:55 AM 59.0 °F - 53.6 °F 82% 30.10 in 10.0 mi South 11.5 mph 21.9 mph N/A   Overcast
9:15 AM 59.0 °F - 53.6 °F 82% 30.11 in 7.0 mi South 17.3 mph 23.0 mph N/A   Overcast
10:15 AM 59.0 °F - 53.6 °F 82% 30.10 in 10.0 mi South 10.4 mph - N/A   Overcast
10:35 AM 59.0 °F - 55.4 °F 88% 30.11 in 4.0 mi South 10.4 mph - N/A   Overcast
10:55 AM 57.2 °F - 55.4 °F 94% 30.11 in 4.0 mi SSW 9.2 mph - N/A   Overcast
11:15 AM 59.0 °F - 55.4 °F 88% 30.11 in 5.0 mi SW 10.4 mph 18.4 mph N/A   Overcast
11:35 AM 51.8 °F - 48.2 °F 88% 30.14 in 0.8 mi WNW 18.4 mph 24.2 mph N/A   Overcast
12:15 PM 50.0 °F - 48.2 °F 94% 30.15 in 3.0 mi West 20.7 mph 28.8 mph N/A   Overcast
12:35 PM 50.0 °F - 46.4 °F 87% 30.14 in 5.0 mi West 17.3 mph 25.3 mph N/A   Overcast
12:55 PM 50.0 °F - 46.4 °F 87% 30.15 in 5.0 mi West 10.4 mph - N/A   Overcast
1:15 PM 50.0 °F - 48.2 °F 94% 30.15 in 3.0 mi WNW 8.1 mph - N/A   Overcast
1:35 PM 50.0 °F - 46.4 °F 87% 30.17 in 4.0 mi WNW 16.1 mph 19.6 mph N/A   Overcast
1:55 PM 46.4 °F 39.0 °F 42.8 °F 87% 30.19 in 4.0 mi WNW 19.6 mph 24.2 mph N/A   Overcast
2:15 PM 42.8 °F 36.2 °F 41.0 °F 93% 30.22 in 5.0 mi WNW 12.7 mph - N/A   Overcast
2:35 PM 42.8 °F 36.2 °F 41.0 °F 93% 30.23 in 5.0 mi West 12.7 mph - N/A   Overcast
2:55 PM 42.8 °F 37.0 °F 39.2 °F 87% 30.23 in 7.0 mi WNW 10.4 mph - N/A   Overcast
3:15 PM 42.8 °F 35.8 °F 39.2 °F 87% 30.24 in 10.0 mi WNW 13.8 mph 18.4 mph N/A   Overcast
3:35 PM 41.0 °F 34.3 °F 39.2 °F 93% 30.25 in 10.0 mi West 11.5 mph - N/A   Overcast
3:55 PM 41.0 °F 33.9 °F 39.2 °F 93% 30.27 in 10.0 mi West 12.7 mph - N/A   Overcast
4:15 PM 41.0 °F 35.2 °F 39.2 °F 93% 30.28 in 10.0 mi West 9.2 mph - N/A   Overcast
4:35 PM 41.0 °F 34.7 °F 37.4 °F 87% 30.29 in 10.0 mi West 10.4 mph - N/A   Overcast
5:15 PM 39.2 °F 31.2 °F 33.8 °F 81% 30.33 in 10.0 mi West 13.8 mph 17.3 mph N/A   Overcast
5:35 PM 37.4 °F 31.4 °F 33.8 °F 87% 30.33 in 10.0 mi West 8.1 mph - N/A   Overcast
6:15 PM 37.4 °F - 33.8 °F 87% 30.33 in 10.0 mi Calm Calm - N/A   Scattered Clouds
6:35 PM 37.4 °F 34.9 °F 33.8 °F 87% 30.33 in 10.0 mi WSW 3.5 mph - N/A   Clear
6:55 PM 37.4 °F 34.9 °F 33.8 °F 87% 30.34 in 10.0 mi WSW 3.5 mph - N/A   Clear
7:15 PM 35.6 °F 32.8 °F 33.8 °F 93% 30.34 in 10.0 mi WSW 3.5 mph - N/A   Clear
7:55 PM 35.6 °F 30.7 °F 32.0 °F 87% 30.35 in 10.0 mi SSW 5.8 mph - N/A   Clear
8:15 PM 33.8 °F 28.6 °F 32.0 °F 93% 30.36 in 10.0 mi SSW 5.8 mph - N/A   Clear
8:35 PM 35.6 °F 31.7 °F 32.0 °F 87% 30.37 in 10.0 mi SSW 4.6 mph - N/A   Clear
8:55 PM 33.8 °F 29.6 °F 32.0 °F 93% 30.38 in 10.0 mi SSW 4.6 mph - N/A   Clear
9:15 PM 33.8 °F 29.6 °F 32.0 °F 93% 30.38 in 10.0 mi WSW 4.6 mph - N/A   Clear
9:35 PM 33.8 °F 29.6 °F 32.0 °F 93% 30.40 in 10.0 mi SSW 4.6 mph - N/A   Clear
9:55 PM 32.0 °F 27.5 °F 30.2 °F 93% 30.40 in 7.0 mi WSW 4.6 mph - N/A   Clear
10:15 PM 32.0 °F 26.4 °F 30.2 °F 93% 30.41 in 10.0 mi West 5.8 mph - N/A   Clear
10:35 PM 32.0 °F 27.5 °F 30.2 °F 93% 30.41 in 10.0 mi WSW 4.6 mph - N/A   Clear
10:55 PM 32.0 °F 27.5 °F 30.2 °F 93% 30.42 in 10.0 mi WSW 4.6 mph - N/A   Clear
11:15 PM 32.0 °F 27.5 °F 30.2 °F 93% 30.42 in 10.0 mi WSW 4.6 mph - N/A   Clear
11:35 PM 32.0 °F - 30.2 °F 93% 30.43 in 10.0 mi Calm Calm - N/A   Clear
11:55 PM 32.0 °F - 28.4 °F 87% 30.43 in 10.0 mi Calm Calm - N/A   Clear